EW0625 Weather Reports


time (UTC)temp
F
wind
direction
speed
knots
gust
knots
rain 1hr
in
rain 24hr
in
rain mn
in
humidity
%
barometer
mb
20260503013531 39 303 0.0 0.0 0.00 0.00 0.00 74 1015.7
20260503013012 40 303 0.0 0.0 0.00 0.00 0.00 74 1015.7
20260503012535 40 303 0.0 0.0 0.00 0.00 0.00 70 1015.7
20260503012014 41 303 0.0 0.0 0.00 0.00 0.00 68 1015.7
20260503011547 42 303 0.0 0.0 0.00 0.00 0.00 70 1015.7
20260503011021 42 303 0.0 0.0 0.00 0.00 0.00 66 1015.7
20260503010559 43 303 0.0 0.0 0.00 0.00 0.00 59 1015.6
20260503010507 43 303 0.0 0.0 0.00 0.00 0.00 58 1015.6
20260503010048 43 303 0.0 0.0 0.00 0.00 0.00 56 1015.6
20260503005503 44 303 0.0 0.0 0.00 0.00 0.00 54 1015.6
20260503005036 44 303 0.0 0.0 0.00 0.00 0.00 53 1015.5
20260503004508 44 303 0.0 0.0 0.00 0.00 0.00 53 1015.4
20260503004039 45 303 0.0 1.7 0.00 0.00 0.00 53 1015.5
20260503003517 45 303 0.0 3.5 0.00 0.00 0.00 52 1015.4
20260503003055 45 303 0.0 3.5 0.00 0.00 0.00 52 1015.5
20260503002533 46 310 0.0 5.2 0.00 0.00 0.00 51 1015.5
20260503002015 46 311 0.0 5.2 0.00 0.00 0.00 52 1015.5
20260503001533 46 285 0.0 1.7 0.00 0.00 0.00 51 1015.4
20260503001011 46 304 0.0 2.6 0.00 0.00 0.00 49 1015.4
20260503000532 47 306 0.0 4.3 0.00 0.00 0.00 50 1015.3
20260503000051 47 310 0.9 5.2 0.00 0.00 0.00 50 1015.3
20260502235535 47 259 1.7 6.1 0.00 0.00 0.00 48 1015.3
20260502235047 48 315 0.0 7.0 0.00 0.00 0.00 48 1015.3
20260502234534 48 283 2.6 7.8 0.00 0.00 0.00 47 1015.3
20260502234057 48 318 1.7 7.8 0.00 0.00 0.00 48 1015.3
20260502233515 48 302 2.6 7.0 0.00 0.00 0.00 48 1015.3
20260502233051 48 259 2.6 6.1 0.00 0.00 0.00 48 1015.3
20260502232530 48 288 0.9 6.1 0.00 0.00 0.00 48 1015.3
20260502232017 48 317 2.6 7.8 0.00 0.00 0.00 48 1015.4
20260502231600 49 323 1.7 7.8 0.00 0.00 0.00 49 1015.4
20260502231007 49 318 2.6 6.1 0.00 0.00 0.00 49 1015.4
20260502230527 49 252 1.7 6.1 0.00 0.00 0.00 47 1015.3
20260502230011 49 304 0.9 5.2 0.00 0.00 0.00 47 1015.3
20260502225544 49 295 2.6 7.0 0.00 0.00 0.00 49 1015.4
20260502225019 49 253 0.0 7.0 0.00 0.00 0.00 49 1015.4
20260502224537 49 298 2.6 7.0 0.00 0.00 0.00 47 1015.4
20260502224015 49 288 3.5 7.0 0.00 0.00 0.00 49 1015.5
20260502223535 49 315 0.9 8.7 0.00 0.00 0.00 51 1015.5
20260502223017 48 294 1.7 8.7 0.00 0.00 0.00 50 1015.6
20260502222553 48 284 1.7 6.1 0.00 0.00 0.00 52 1015.6
20260502222012 48 282 0.9 6.1 0.00 0.00 0.00 52 1015.6
20260502221543 48 309 0.9 6.1 0.00 0.00 0.00 51 1015.6
20260502221003 48 315 0.0 7.8 0.00 0.00 0.00 53 1015.5
20260502220541 49 323 3.5 7.8 0.00 0.00 0.00 50 1015.5
20260502220012 49 323 1.7 9.6 0.00 0.00 0.00 51 1015.5
20260502215543 49 229 2.6 9.6 0.00 0.00 0.00 49 1015.6
20260502215022 48 279 0.9 8.7 0.00 0.00 0.00 52 1015.5
20260502214544 47 317 4.3 8.7 0.00 0.00 0.00 53 1015.6
20260502214022 47 286 0.0 9.6 0.00 0.00 0.00 54 1015.6
20260502213543 47 288 3.5 9.6 0.00 0.00 0.00 52 1015.6
20260502213019 47 248 0.9 8.7 0.00 0.00 0.00 50 1015.6
20260502212541 47 296 2.6 8.7 0.00 0.00 0.00 53 1015.6
20260502212019 47 291 0.0 6.1 0.00 0.00 0.00 56 1015.7
20260502211545 47 300 1.7 6.1 0.00 0.00 0.00 55 1015.7
20260502211026 47 291 0.0 4.3 0.00 0.00 0.00 56 1015.7
20260502210504 47 272 0.0 4.3 0.00 0.00 0.00 53 1015.8
20260502210044 46 316 0.9 6.1 0.00 0.00 0.00 55 1015.8
20260502205514 46 319 0.9 6.1 0.00 0.00 0.00 54 1015.8
20260502205044 46 275 2.6 6.1 0.00 0.00 0.00 53 1015.8
20260502204522 46 314 1.7 9.6 0.00 0.00 0.00 53 1015.9
20260502204006 46 317 0.9 6.1 0.00 0.00 0.00 54 1015.8
20260502203524 46 296 1.7 12.2 0.00 0.00 0.00 49 1015.9
20260502203007 47 306 3.5 12.2 0.00 0.00 0.00 50 1015.9
20260502202544 47 15 1.7 10.4 0.00 0.00 0.00 50 1015.9
20260502202056 47 327 2.6 8.7 0.00 0.00 0.00 52 1016.1
20260502201545 47 316 1.7 9.6 0.00 0.00 0.00 49 1016.1
20260502201012 47 323 3.5 9.6 0.00 0.00 0.00 51 1016.2
20260502200545 46 325 4.3 8.7 0.00 0.00 0.00 51 1016.2
20260502200100 46 291 3.5 7.8 0.00 0.00 0.00 51 1016.2
20260502200001 46 304 2.6 7.8 0.00 0.00 0.00 51 1016.2
20260502195538 46 9 2.6 7.8 0.00 0.00 0.00 50 1016.2
20260502195056 47 355 0.9 7.0 0.00 0.00 0.00 49 1016.3
20260502194538 47 299 2.6 7.0 0.00 0.00 0.00 53 1016.3
20260502194016 47 291 1.7 6.1 0.00 0.00 0.00 51 1016.4
20260502193538 47 318 0.0 7.0 0.00 0.00 0.00 54 1016.5
20260502193014 47 333 0.9 7.0 0.00 0.00 0.00 53 1016.4
20260502192537 47 336 1.7 6.1 0.00 0.00 0.00 52 1016.5
20260502192011 47 317 1.7 8.7 0.00 0.00 0.00 52 1016.5
20260502191529 47 320 2.6 8.7 0.00 0.00 0.00 53 1016.5
20260502191004 46 284 2.6 8.7 0.00 0.00 0.00 53 1016.6
20260502190524 46 266 1.7 7.8 0.00 0.00 0.00 52 1016.7
20260502190059 46 334 1.7 5.2 0.00 0.00 0.00 52 1016.8
20260502185540 46 317 1.7 7.0 0.00 0.00 0.00 52 1016.8
20260502185014 46 304 1.7 7.0 0.00 0.00 0.00 50 1016.8
20260502184557 46 331 2.6 9.6 0.00 0.00 0.00 51 1016.8
20260502184014 46 241 2.6 9.6 0.00 0.00 0.00 53 1016.8
20260502183550 46 309 3.5 6.1 0.00 0.00 0.00 52 1016.9
20260502183034 46 294 0.9 6.1 0.00 0.00 0.00 52 1016.9
20260502182515 45 273 1.7 7.0 0.00 0.00 0.00 54 1017.0
20260502182052 45 302 3.5 7.0 0.00 0.00 0.00 52 1017.0
20260502181600 45 319 1.7 5.2 0.00 0.00 0.00 52 1017.1
20260502181503 45 323 2.6 5.2 0.00 0.00 0.00 54 1017.1
20260502181038 45 328 0.9 5.2 0.00 0.00 0.00 56 1017.1
20260502180556 45 315 0.0 6.1 0.00 0.00 0.00 54 1017.1
20260502170505 43 306 1.7 5.2 0.00 0.00 0.00 57 1017.6
20260502164052 44 349 0.9 5.2 0.00 0.00 0.00 56 1017.7
20260502163514 44 312 0.0 7.0 0.00 0.00 0.00 57 1017.8
20260502163051 44 351 1.7 7.0 0.00 0.00 0.00 54 1017.8
20260502162531 44 305 0.9 5.2 0.00 0.00 0.00 61 1017.8
20260502162050 43 304 0.0 5.2 0.00 0.00 0.00 58 1017.8
20260502161524 43 300 0.0 11.3 0.00 0.00 0.00 56 1017.8
20260502161040 43 330 0.0 11.3 0.00 0.00 0.00 57 1017.9
20260502160518 43 5 2.6 7.0 0.00 0.00 0.00 57 1017.8
20260502152040 42 330 1.7 8.7 0.00 0.00 0.00 58 1017.7
20260502151518 42 339 2.6 8.7 0.00 0.00 0.00 57 1017.6
20260502151040 43 333 0.9 9.6 0.00 0.00 0.00 59 1017.6
20260502150556 43 344 2.6 9.6 0.00 0.00 0.00 61 1017.6
20260502130526 38 342 2.6 7.8 0.00 0.00 0.00 77 1017.8
20260502123541 36 348 3.5 5.2 0.00 0.00 0.00 79 1017.7
20260502123019 36 327 2.6 6.1 0.00 0.00 0.00 80 1017.7
20260502122559 36 340 1.7 6.1 0.00 0.00 0.00 79 1017.7
20260502122021 35 346 1.7 5.2 0.00 0.00 0.00 81 1017.6
20260502121558 35 331 0.9 4.3 0.00 0.00 0.00 82 1017.6
20260502121040 35 344 0.9 5.2 0.00 0.00 0.00 83 1017.5
20260502120556 34 349 2.6 5.2 0.00 0.00 0.00 82 1017.5
20260502115514 33 322 1.7 5.2 0.00 0.00 0.00 84 1017.4
20260502115033 33 322 0.0 5.2 0.00 0.00 0.00 85 1017.3
20260502114516 33 346 0.0 5.2 0.00 0.00 0.00 86 1017.3
20260502114052 32 360 0.9 5.2 0.00 0.00 0.00 86 1017.3
20260502113511 32 324 0.0 2.6 0.00 0.00 0.00 87 1017.2
20260502113032 31 323 0.0 2.6 0.00 0.00 0.00 87 1017.3
20260502112513 31 323 0.0 2.6 0.00 0.00 0.00 87 1017.1
20260502112051 31 324 0.0 2.6 0.00 0.00 0.00 87 1017.1
20260502111516 30 323 0.0 2.6 0.00 0.00 0.00 87 1017.1
20260502111051 30 323 0.0 0.0 0.00 0.00 0.00 87 1017.1
20260502110515 30 323 0.0 0.0 0.00 0.00 0.00 87 1017.0
20260502110051 30 323 0.0 0.0 0.00 0.00 0.00 87 1017.0
20260502105534 30 323 0.0 0.0 0.00 0.00 0.00 87 1016.9
20260502105052 30 323 0.0 0.0 0.00 0.00 0.00 86 1016.8
20260502104516 30 323 0.0 0.0 0.00 0.00 0.00 86 1016.8
20260502104051 30 323 0.0 0.0 0.00 0.00 0.00 87 1016.8
20260502103533 30 323 0.0 0.0 0.00 0.00 0.00 86 1016.9
20260502103106 30 323 0.0 0.0 0.00 0.00 0.00 86 1016.9
20260502102534 30 323 0.0 0.0 0.00 0.00 0.00 86 1016.9
20260502102016 30 323 0.0 0.0 0.00 0.00 0.00 86 1016.8
20260502101605 31 323 0.0 0.0 0.00 0.00 0.00 86 1016.8
20260502101015 31 323 0.0 0.0 0.00 0.00 0.00 86 1016.8
20260502100549 31 323 0.0 0.0 0.00 0.00 0.00 86 1016.8
20260502091507 31 315 0.0 0.0 0.00 0.01 0.00 86 1016.6
20260502091027 31 315 0.0 0.0 0.00 0.01 0.00 86 1016.6
20260502090505 31 315 0.0 3.5 0.00 0.01 0.00 85 1016.6
20260502071535 33 281 0.0 0.0 0.00 0.02 0.00 81 1016.2
20260502071013 33 280 0.0 0.0 0.00 0.02 0.00 81 1016.2
20260502070535 33 280 0.0 0.9 0.00 0.02 0.00 81 1016.2
20260502070022 33 280 0.0 3.5 0.00 0.08 0.00 80 1016.2
20260502065557 33 280 0.0 3.5 0.00 0.08 0.00 80 1016.1
20260502065024 33 300 0.0 2.6 0.00 0.08 0.00 80 1016.2
20260502064602 34 300 0.0 1.7 0.00 0.08 0.00 79 1016.2
20260502064021 34 300 0.0 1.7 0.00 0.08 0.00 79 1016.2
20260502063556 34 300 0.0 0.0 0.00 0.08 0.00 78 1016.3
20260502063042 34 300 0.0 4.3 0.00 0.08 0.00 77 1016.3
20260502062557 35 300 0.0 4.3 0.00 0.08 0.00 77 1016.4
20260502062039 35 308 0.0 2.6 0.00 0.08 0.00 77 1016.4
20260502061557 35 308 0.0 2.6 0.00 0.08 0.00 76 1016.4
20260502061037 35 293 0.0 5.2 0.00 0.08 0.00 76 1016.4
20260502060549 36 295 0.0 1.7 0.00 0.08 0.00 75 1016.5
20260502060031 36 308 0.0 2.6 0.00 0.10 0.00 75 1016.5
20260502055509 36 308 0.0 2.6 0.00 0.10 0.00 74 1016.5
20260502055032 36 308 0.0 3.5 0.00 0.10 0.00 74 1016.5
20260502054508 36 308 0.0 4.3 0.00 0.10 0.00 74 1016.6
20260502054030 37 309 0.9 4.3 0.00 0.10 0.00 74 1016.6
20260502053505 37 318 0.0 2.6 0.00 0.10 0.00 73 1016.6
20260502053033 37 319 0.0 3.5 0.00 0.10 0.00 73 1016.6
20260502052511 37 286 0.9 3.5 0.00 0.10 0.00 72 1016.6
20260502052050 37 284 0.9 4.3 0.00 0.10 0.00 73 1016.6
20260502051513 38 297 1.7 7.0 0.00 0.10 0.00 72 1016.6
20260502051046 38 288 1.7 7.0 0.00 0.10 0.00 72 1016.5
20260502050522 38 283 1.7 5.2 0.00 0.10 0.00 72 1016.5
20260502050045 38 312 0.0 6.1 0.00 0.14 0.00 72 1016.5
20260502045523 38 317 1.7 6.1 0.00 0.14 0.00 72 1016.4
20260502045045 38 302 0.9 5.2 0.00 0.14 0.00 72 1016.4
20260502044527 39 273 1.7 5.2 0.00 0.14 0.00 71 1016.4
20260502044004 39 308 0.9 10.4 0.00 0.14 0.00 72 1016.3
20260502043527 39 300 2.6 10.4 0.00 0.14 0.00 72 1016.4
20260502043108 39 298 0.9 4.3 0.00 0.14 0.00 72 1016.3
20260502043001 39 298 0.0 4.3 0.00 0.14 0.00 73 1016.3
20260502042524 39 317 0.9 4.3 0.00 0.14 0.00 73 1016.2
20260502042059 39 313 0.9 4.3 0.00 0.14 0.00 72 1016.0
20260502042003 39 313 0.0 4.3 0.00 0.14 0.00 72 1016.0
20260502041522 39 332 0.0 5.2 0.00 0.14 0.00 72 1016.0
20260502041058 39 341 1.7 5.2 0.00 0.14 0.00 72 1016.1
20260502040538 39 317 0.9 5.2 0.00 0.14 0.00 72 1016.0
20260502040016 39 316 0.0 4.3 0.00 0.20 0.14 73 1016.0
20260502035532 39 302 0.0 2.6 0.00 0.20 0.14 73 1015.9
20260502035008 39 301 0.0 3.5 0.00 0.20 0.14 74 1015.9
20260502034528 39 296 0.0 3.5 0.00 0.20 0.14 74 1015.9
20260502034006 39 299 0.0 7.0 0.00 0.20 0.14 74 1016.0
20260502033525 39 301 0.9 7.0 0.00 0.20 0.14 75 1016.0
20260502033056 39 288 0.9 5.2 0.00 0.20 0.14 76 1015.9
20260502032539 39 315 0.0 6.1 0.00 0.20 0.14 77 1016.0
20260502032019 38 258 0.0 3.5 0.00 0.20 0.14 77 1015.9
20260502031543 38 295 0.0 5.2 0.00 0.20 0.14 78 1015.8
20260502031022 38 302 0.9 5.2 0.00 0.20 0.14 80 1015.7
20260502030544 38 323 0.0 0.9 0.00 0.20 0.14 79 1015.7
20260502030026 37 323 0.0 0.0 0.00 0.22 0.14 79 1015.7
20260502025557 37 323 0.0 0.0 0.00 0.22 0.14 79 1015.7
20260502025502 37 323 0.0 0.0 0.00 0.22 0.14 79 1015.7
20260502025047 37 323 0.0 0.0 0.00 0.22 0.14 79 1015.7
20260502024511 37 323 0.0 0.0 0.00 0.22 0.14 78 1015.7
20260502024050 37 323 0.0 0.0 0.00 0.22 0.14 78 1015.7
20260502023508 38 323 0.0 0.0 0.00 0.22 0.14 78 1015.6
20260502023049 38 323 0.0 0.0 0.00 0.22 0.14 77 1015.6
20260502022529 38 323 0.0 0.0 0.00 0.22 0.14 77 1015.6
20260502022010 38 323 0.0 0.0 0.00 0.22 0.14 77 1015.6
20260502021529 39 323 0.0 0.0 0.00 0.22 0.14 76 1015.5
20260502021059 39 323 0.0 0.0 0.00 0.22 0.14 76 1015.5
20260502021004 39 323 0.0 0.0 0.00 0.22 0.14 76 1015.5
20260502020535 39 323 0.0 0.0 0.00 0.22 0.14 76 1015.5
20260502020007 39 323 0.0 0.0 0.00 0.25 0.14 76 1015.4
20260502015547 39 323 0.0 0.0 0.00 0.25 0.14 75 1015.3
20260502015022 39 323 0.0 0.0 0.00 0.25 0.14 75 1015.2
20260502014556 40 323 0.0 2.6 0.00 0.25 0.14 74 1015.2
20260502014036 40 323 0.0 4.3 0.00 0.25 0.14 73 1015.1